[[{"header":{"parameterUnit":"m.s-1","parameterCategory":1,"la1":30.2991,"la2":30.254,"lo1":-89.0895,"lo2":-89.0444,"dy":0.0017,"dx":0.0017,"nx":28,"ny":28,"refTime":"2025-04-23T03:00:00:Z","depth":0,"parameterNumber":2,"parameterNumberName":"U-component_of_WINDS"},"data":[0,0,0,0,0,0,0,0,0,0,0,0,0,0,0,0,0,0,0,0,0,0,0,0,0,0,0,0,0,0,0,0,0,0,0,0,0,0,0,0,0,0,0,0,0,0,0,0,0,0,0,0,0,0,0,0,0,0,-2.2983,-2.2983,0,-2.2943,-2.2943,-2.2943,-2.2884,-2.2883,-2.2882,-2.2881,-2.2839,-2.2839,-2.2839,0,0,0,0,0,0,0,0,0,0,0,0,0,-2.3009,-2.3008,-2.2983,-2.2983,-2.2982,-2.2944,-2.2943,-2.2942,-2.2885,-2.2883,-2.2882,-2.2881,-2.2839,-2.2839,-2.2839,0,0,0,0,0,0,0,0,0,0,0,0,0,-2.2986,-2.3008,-2.2983,-2.2949,-2.2945,-2.2944,-2.2943,-2.2942,-2.2885,-2.2883,-2.2882,-2.288,-2.2839,-2.2839,-2.2839,-2.2867,0,0,-2.2838,-2.2838,0,0,0,0,0,0,0,0,-2.2987,-2.2985,-2.2954,-2.2951,-2.2947,-2.2917,-2.2936,-2.2917,-2.2885,-2.2908,-2.2881,-2.288,-2.2866,-2.2864,-2.2859,-2.2865,-2.2863,-2.2838,-2.2838,-2.2837,-2.2837,0,0,0,0,0,0,0,-2.2989,-2.2987,-2.2967,-2.2954,-2.295,-2.2935,-2.293,-2.2932,-2.2896,-2.2906,-2.2901,-2.2898,-2.2864,-2.286,-2.2858,-2.2863,-2.2838,-2.2837,-2.2837,-2.2837,-2.289,-2.2892,0,0,0,0,0,0,-2.2996,-2.2988,-2.2969,-2.2966,-2.2964,-2.2936,-2.293,-2.2928,-2.2896,-2.2889,-2.2899,-2.2895,-2.2861,-2.2858,-2.2856,-2.2887,-2.2837,-2.2837,-2.2837,-2.2889,-2.2891,-2.2893,0,0,0,0,0,0,-2.2997,-2.2995,-2.297,-2.2976,-2.2972,-2.2937,-2.2935,-2.2928,-2.2924,-2.2891,-2.2884,-2.2901,-2.286,-2.2857,-2.2865,-2.2885,-2.2837,-2.2837,-2.2887,-2.2889,-2.2892,-2.295,0,0,0,0,0,0,-2.2998,-2.2995,-2.3006,-2.2977,-2.2972,-2.298,-2.2937,-2.2929,-2.2924,-2.2919,-2.2891,-2.2885,-2.2858,-2.2866,-2.2865,-2.2884,-2.2837,-2.2885,-2.2888,-2.2891,-2.2946,-2.2954,-2.2961,0,0,0,0,0,-2.2999,-2.3023,-2.3006,-2.3004,-2.2984,-2.2981,-2.2978,-2.2948,-2.2926,-2.2936,-2.2915,-2.2886,-2.2884,-2.2867,-2.2866,-2.2885,-2.2884,-2.2887,-2.2891,-2.2943,-2.2952,-2.2961,0,0,0,0,0,0,-2.3054,-2.3019,-2.3,-2.3015,-2.3002,-2.2971,-2.2983,-2.2959,-2.295,-2.2946,-2.2907,-2.2902,-2.2915,-2.2901,-2.2883,-2.2911,-2.2879,-2.2883,-2.2919,-2.2928,-2.2936,-2.2938,-2.2836,0,0,0,0,0,-2.3068,-2.3069,-2.3038,-2.3055,-2.3049,-2.3018,-2.3015,-2.2993,-2.2977,-2.2971,-2.295,-2.2936,-2.2931,-2.2929,-2.2924,-2.2945,-2.2938,-2.2957,-2.2965,-2.2971,-2.2974,-2.2984,-2.2992,-2.2904,-2.2904,-2.2904,0,0,-2.3097,-2.3078,-2.3081,-2.3066,-2.3053,-2.3054,-2.3013,-2.3016,-2.3017,-2.2971,-2.2978,-2.2963,-2.2944,-2.2959,-2.2964,-2.2947,-2.2997,-2.2975,-2.2981,-2.298,-2.2988,-2.2997,-2.3004,-2.2907,-2.2906,-2.2906,0,0,-2.315,-2.3137,-2.3149,-2.3137,-2.3118,-2.3098,-2.3101,-2.3075,-2.3063,-2.3069,-2.3035,-2.3036,-2.303,-2.3018,-2.3011,-2.3063,-2.3036,-2.3062,-2.31,-2.311,-2.3117,-2.3123,-2.3141,-2.3148,-2.3065,-2.3066,-2.3066,0,-2.3188,-2.319,-2.3158,-2.3164,-2.3159,-2.3119,-2.3131,-2.3121,-2.3102,-2.3099,-2.3081,-2.3073,-2.3058,-2.3069,-2.3082,-2.3078,-2.3081,-2.3064,-2.3119,-2.3125,-2.313,-2.3146,-2.3153,-2.3069,-2.3068,-2.3068,-2.3068,0,-2.3237,-2.3239,-2.3251,-2.3234,-2.323,-2.324,-2.321,-2.321,-2.3189,-2.317,-2.3178,-2.3159,-2.3149,-2.315,-2.3129,-2.3159,-2.3149,-2.3126,-2.3093,-2.3142,-2.3157,-2.3163,-2.3073,-2.3072,-2.3071,-2.3071,0,0,-2.3321,-2.3289,-2.3294,-2.3286,-2.3263,-2.3264,-2.3272,-2.3263,-2.3263,-2.3252,-2.3257,-2.3255,-2.3233,-2.3226,-2.3203,-2.3213,-2.3255,-2.3188,-2.3187,-2.32,-2.3287,-2.3303,-2.3311,-2.3238,-2.3239,-2.324,-2.3288,0,-2.3369,-2.338,-2.3354,-2.3372,-2.3373,-2.3336,-2.3343,-2.3331,-2.3314,-2.3313,-2.3294,-2.3292,-2.3265,-2.326,-2.3268,-2.3248,-2.3271,-2.3245,-2.3242,-2.3242,-2.3246,-2.3319,-2.3336,-2.3382,-2.3294,-2.3295,-2.3295,0,-2.3425,-2.3418,-2.3436,-2.3414,-2.3413,-2.342,-2.341,-2.341,-2.3395,-2.3382,-2.3375,-2.335,-2.3356,-2.3327,-2.3335,-2.3317,-2.3315,-2.3306,-2.3307,-2.3303,-2.327,-2.3317,-2.3396,-2.3402,-2.3304,-2.3304,-2.3303,0,-2.3484,-2.3478,-2.3488,-2.3483,-2.3457,-2.3463,-2.3453,-2.3436,-2.3433,-2.3425,-2.3423,-2.3416,-2.3411,-2.3407,-2.338,-2.3361,-2.3392,-2.336,-2.3381,-2.3381,-2.3387,-2.3386,-2.3465,-2.3388,-2.3388,-2.3388,-2.3388,0,-2.3538,-2.3551,-2.3514,-2.3521,-2.3534,-2.3504,-2.3518,-2.3504,-2.349,-2.3493,-2.3462,-2.3465,-2.3431,-2.3431,-2.3411,-2.342,-2.3419,-2.3408,-2.3402,-2.341,-2.3411,-2.3406,-2.3402,-2.339,-2.339,-2.3389,-2.3389,0,-2.3604,-2.3581,-2.359,-2.3566,-2.356,-2.3571,-2.355,-2.3555,-2.3537,-2.3542,-2.3541,-2.3513,-2.3512,-2.3486,-2.3478,-2.3465,-2.3482,-2.3471,-2.3487,-2.3483,-2.3505,-2.3503,-2.3582,-2.3591,-2.351,-2.3511,-2.3512,0,-2.364,-2.3649,-2.3626,-2.3626,-2.3618,-2.3618,-2.3615,-2.3587,-2.3585,-2.357,-2.3577,-2.3573,-2.3568,-2.3567,-2.3547,-2.3541,-2.3529,-2.3557,-2.3527,-2.3535,-2.3528,-2.3527,-2.3527,-2.3563,-2.3564,-2.3564,-2.3565,0,-2.3705,-2.3694,-2.3691,-2.3685,-2.3682,-2.3676,-2.3667,-2.3669,-2.3638,-2.3638,-2.3636,-2.3633,-2.3626,-2.3623,-2.3614,-2.3603,-2.3579,-2.3575,-2.358,-2.3586,-2.3595,-2.3589,-2.3503,-2.3573,-2.3572,-2.3571,-2.3571,-2.3571,-2.3756,-2.3762,-2.3748,-2.3746,-2.3737,-2.3731,-2.3734,-2.3718,-2.3716,-2.3709,-2.3693,-2.3694,-2.368,-2.3666,-2.3658,-2.3658,-2.3644,-2.365,-2.3652,-2.3653,-2.3657,-2.3597,-2.3657,-2.3657,-2.3656,-2.3656,-2.3656,0,-2.3818,-2.3808,-2.3807,-2.3797,-2.3796,-2.3775,-2.3765,-2.3765,-2.3767,-2.3757,-2.3753,-2.3752,-2.3749,-2.3729,-2.3724,-2.3728,-2.3717,-2.3728,-2.3726,-2.3724,-2.3671,-2.3667,-2.3737,-2.3737,-2.3737,-2.3737,-2.3737,-2.3737,-2.3851,-2.386,-2.3848,-2.3853,-2.3842,-2.3843,-2.384,-2.3834,-2.3825,-2.3825,-2.3823,-2.3811,-2.3797,-2.3791,-2.3788,-2.3782,-2.3781,-2.3795,-2.3785,-2.3736,-2.3728,-2.372,-2.3716,-2.3795,-2.3795,-2.3838,-2.3838,-2.3839]},{"header":{"parameterUnit":"m.s-1","parameterCategory":1,"la1":30.2991,"la2":30.254,"lo1":-89.0895,"lo2":-89.0444,"dy":0.0017,"dx":0.0017,"nx":28,"ny":28,"refTime":"2025-04-23T03:00:00:Z","depth":0,"parameterNumber":3,"parameterNumberName":"V-component_of_WINDS"},"data":[0,0,0,0,0,0,0,0,0,0,0,0,0,0,0,0,0,0,0,0,0,0,0,0,0,0,0,0,0,0,0,0,0,0,0,0,0,0,0,0,0,0,0,0,0,0,0,0,0,0,0,0,0,0,0,0,0,0,1.1844,1.1843,0,1.1728,1.1727,1.1726,1.1722,1.1724,1.1725,1.1726,1.1601,1.1597,1.1592,0,0,0,0,0,0,0,0,0,0,0,0,0,1.206,1.2056,1.1844,1.1843,1.1842,1.1729,1.1727,1.1725,1.1722,1.1724,1.1725,1.1727,1.1603,1.1597,1.1592,0,0,0,0,0,0,0,0,0,0,0,0,0,1.1957,1.2054,1.1845,1.1826,1.1824,1.1729,1.1727,1.1725,1.1722,1.1724,1.1726,1.1728,1.1605,1.1598,1.1591,1.1505,0,0,1.1569,1.1566,0,0,0,0,0,0,0,0,1.1963,1.1949,1.1831,1.1828,1.1824,1.1742,1.1757,1.1651,1.1721,1.176,1.1726,1.1729,1.1646,1.1636,1.1609,1.1499,1.1493,1.1569,1.1565,1.1562,1.156,0,0,0,0,0,0,0,1.197,1.1954,1.1798,1.1829,1.1825,1.1823,1.1811,1.1737,1.1692,1.1757,1.1756,1.1743,1.1645,1.1616,1.1606,1.1492,1.1569,1.1563,1.1559,1.1556,1.1307,1.1305,0,0,0,0,0,0,1.1981,1.196,1.1802,1.1795,1.19,1.1817,1.1804,1.1766,1.1693,1.1684,1.1741,1.1743,1.1627,1.1614,1.1602,1.1497,1.1562,1.1555,1.1551,1.131,1.1307,1.1304,0,0,0,0,0,0,1.1986,1.1967,1.1807,1.1877,1.1857,1.1811,1.1769,1.1763,1.1734,1.1681,1.1673,1.172,1.1628,1.1611,1.153,1.1492,1.1552,1.1546,1.1312,1.1309,1.1305,1.1286,0,0,0,0,0,0,1.1992,1.1969,1.1936,1.1877,1.1853,1.1738,1.1767,1.1759,1.1723,1.1724,1.1659,1.1651,1.1628,1.154,1.1523,1.1484,1.154,1.1315,1.1311,1.1306,1.1289,1.1282,1.1275,0,0,0,0,0,1.2,1.1933,1.1934,1.1915,1.1811,1.1735,1.1722,1.1699,1.172,1.1686,1.1653,1.1653,1.15,1.1532,1.1512,1.147,1.1318,1.1312,1.1307,1.1292,1.1283,1.1276,0,0,0,0,0,0,1.1986,1.1925,1.1925,1.1838,1.1793,1.1735,1.1691,1.169,1.1635,1.1639,1.1612,1.1597,1.1516,1.1485,1.1522,1.1384,1.1411,1.1401,1.1407,1.1398,1.1391,1.1399,1.1534,0,0,0,0,0,1.1974,1.1919,1.1868,1.1795,1.1773,1.1737,1.1702,1.169,1.164,1.162,1.1581,1.1531,1.1472,1.1434,1.1376,1.1286,1.1272,1.1248,1.1241,1.1236,1.1227,1.1178,1.1167,1.1286,1.1286,1.1286,0,0,1.1946,1.1906,1.1872,1.1792,1.1755,1.1698,1.172,1.1657,1.1614,1.161,1.1531,1.1501,1.1444,1.1358,1.1318,1.133,1.1191,1.1229,1.1225,1.1219,1.1171,1.116,1.115,1.1283,1.1283,1.1284,0,0,1.1865,1.183,1.1767,1.1731,1.1676,1.1653,1.1638,1.1581,1.1562,1.1483,1.1479,1.1428,1.1326,1.1287,1.1253,1.1163,1.1161,1.1145,1.1107,1.106,1.1051,1.1042,1.101,1.0999,1.1137,1.1137,1.1137,0,1.1837,1.1752,1.1734,1.1672,1.1637,1.1635,1.157,1.1535,1.1463,1.1439,1.1454,1.133,1.1291,1.1196,1.1175,1.1148,1.113,1.1151,1.1054,1.1045,1.1037,1.1006,1.0994,1.1136,1.1136,1.1136,1.1136,0,1.172,1.1661,1.1616,1.1551,1.1511,1.1448,1.142,1.1382,1.1374,1.135,1.127,1.1225,1.1159,1.1136,1.1126,1.1041,1.105,1.106,1.1086,1.1025,1.0995,1.0983,1.1133,1.1134,1.1134,1.1135,0,0,1.1623,1.1552,1.1536,1.1507,1.1448,1.1402,1.134,1.1279,1.1247,1.1199,1.1145,1.1062,1.1072,1.1035,1.1021,1.098,1.0912,1.0995,1.0993,1.098,1.0816,1.0808,1.0794,1.0912,1.091,1.0908,1.082,0,1.1536,1.1427,1.1411,1.1315,1.1261,1.126,1.1206,1.1164,1.114,1.109,1.1064,1.1005,1.1023,1.1,1.096,1.0929,1.0878,1.0935,1.0861,1.0858,1.0873,1.0778,1.0769,1.0688,1.0809,1.0807,1.0805,0,1.1418,1.1371,1.127,1.1222,1.1198,1.115,1.1094,1.1047,1.1,1.0986,1.0946,1.0938,1.0874,1.0905,1.0816,1.0855,1.0824,1.0805,1.0801,1.0791,1.0826,1.0765,1.0662,1.0649,1.0787,1.0788,1.079,0,1.1358,1.1268,1.1197,1.1173,1.1114,1.1081,1.1055,1.101,1.0975,1.0926,1.0904,1.0847,1.0815,1.0771,1.0749,1.0774,1.0661,1.069,1.0646,1.0647,1.062,1.0622,1.0509,1.0603,1.0603,1.0603,1.0604,0,1.1261,1.1199,1.117,1.1125,1.1057,1.1039,1.0971,1.0946,1.0907,1.0858,1.0853,1.0806,1.078,1.073,1.0712,1.0641,1.0626,1.0612,1.0608,1.0612,1.0613,1.0589,1.0594,1.06,1.0601,1.0602,1.0602,0,1.118,1.1158,1.108,1.1034,1.102,1.0972,1.0931,1.0888,1.0867,1.0804,1.0789,1.0754,1.0695,1.0669,1.0595,1.0583,1.0502,1.0502,1.0518,1.0516,1.0474,1.0478,1.0341,1.0322,1.0429,1.0428,1.0428,0,1.1119,1.1072,1.1022,1.099,1.0963,1.0911,1.0877,1.0859,1.0823,1.0769,1.0732,1.0674,1.0626,1.0531,1.0498,1.0443,1.0441,1.0397,1.0432,1.0438,1.0439,1.0442,1.0437,1.0389,1.0388,1.0387,1.0387,0,1.1013,1.1005,1.0957,1.0906,1.0866,1.0824,1.0782,1.0756,1.0732,1.0692,1.0633,1.0596,1.0523,1.0465,1.0408,1.038,1.0379,1.0377,1.0363,1.0366,1.0377,1.037,1.0499,1.0379,1.038,1.038,1.0381,1.0381,1.0939,1.0898,1.0857,1.0804,1.0772,1.0735,1.0693,1.0669,1.062,1.056,1.0553,1.049,1.0446,1.037,1.0341,1.0291,1.0301,1.0282,1.0277,1.0272,1.027,1.0387,1.028,1.028,1.0281,1.0281,1.0281,0,1.0832,1.0807,1.0759,1.0703,1.0662,1.0669,1.0624,1.0589,1.0534,1.0495,1.0449,1.0382,1.0327,1.0293,1.0237,1.0203,1.0202,1.0189,1.019,1.0184,1.0263,1.028,1.0192,1.0192,1.0192,1.0192,1.0192,1.0192,1.0771,1.0703,1.0691,1.0607,1.0582,1.0522,1.0497,1.0462,1.0431,1.0358,1.0313,1.0292,1.0254,1.0197,1.0146,1.0138,1.0117,1.0104,1.0095,1.0169,1.0178,1.0187,1.0203,1.01,1.0099,1.002,1.0019,1.0019]}]]